Wind_Speed
16 15 15 14 13 14 14 14 15 15 15 16 17 16 16 15 15 16 17 17 17 17 17 17 18 16 15 15 15 15 14 14 14 13 13 12 11 11 12 13 13 12 10
17 17 16 15 15 15 15 16 16 17 18 18 19 19 19 18 18 18 19 19 19 19 19 19 19 18 17 17 17 17 16 16 16 16 16 15 15 15 15 15 15 14 12
17 17 16 15 16 16 16 17 17 18 19 19 20 20 20 20 20 21 21 21 21 21 20 21 20 20 19 19 19 18 18 18 19 19 19 19 18 17 17 16 16 16 16
16 15 16 15 16 17 17 18 19 20 21 22 22 23 23 23 22 23 24 23 23 23 23 23 23 22 21 21 21 21 21 21 22 22 22 22 22 21 19 19 18 19 20
18 16 16 17 18 18 18 19 20 21 22 24 24 25 26 26 27 27 26 25 25 25 25 25 26 25 24 23 24 24 24 24 25 26 26 26 26 25 24 23 22 22 21
17 18 19 20 21 21 21 22 23 24 23 25 27 27 27 26 27 27 26 26 25 25 25 26 27 27 27 27 25 26 27 27 28 29 30 30 30 29 28 27 26 25 24
22 22 22 22 23 24 25 26 26 26 27 28 29 29 30 30 29 27 26 26 26 25 25 26 28 29 30 31 30 29 32 37 35 33 34 34 34 34 33 32 31 30 28
26 26 26 26 28 29 29 29 30 30 32 30 32 34 37 35 30 28 28 28 27 28 28 30 30 31 33 35 39 38 39 38 43 41 40 42 39 39 38 38 36 35 33
29 30 31 31 32 33 33 32 33 34 34 32 33 37 40 41 37 31 30 31 31 30 31 32 32 33 39 42 44 44 48 45 42 46 48 50 48 49 47 44 40 40 38
33 33 34 35 35 37 37 37 36 36 37 39 38 36 36 38 39 42 37 36 36 35 35 35 37 36 35 38 40 43 44 47 45 44 48 43 44 48 49 47 46 46 43
38 38 39 41 40 41 41 41 40 41 40 38 36 33 35 38 37 40 41 40 39 38 37 39 40 43 39 46 44 43 40 43 41 35 37 35 34 32 36 40 42 46 49
40 41 41 42 41 40 39 39 38 37 34 33 33 33 33 34 37 36 41 40 41 39 39 39 40 37 40 44 45 46 37 46 45 40 35 34 34 29 27 29 32 34 34
38 38 39 39 37 34 32 34 35 34 32 32 34 34 34 35 35 36 38 40 42 41 39 39 37 40 40 41 38 47 46 45 36 36 33 35 22 22 23 15 20 27 27
35 36 37 37 35 32 32 34 34 33 32 30 30 30 32 33 33 33 36 37 40 41 42 40 37 35 35 35 34 36 35 39 33 17 23 26 20 27 26 24 23 26 31
28 27 27 27 26 26 27 28 28 29 29 30 31 33 34 34 36 37 37 37 39 43 43 41 38 35 33 34 32 31 32 32 30 26 21 25 26 28 30 28 30 32 35
27 26 26 26 27 27 28 29 30 31 31 33 34 35 35 35 34 34 34 33 33 35 38 38 34 31 32 35 33 30 29 25 23 20 24 26 27 31 31 29 27 27 29
30 30 30 30 31 31 32 33 32 32 33 33 33 33 32 29 30 31 31 32 33 33 33 33 30 30 31 33 31 27 29 28 25 24 27 28 28 25 24 25 27 29 30
33 33 33 33 32 32 31 31 31 31 30 29 31 29 28 28 30 30 31 32 32 29 29 27 28 28 30 32 32 29 32 34 26 26 21 23 23 25 27 27 29 30 27
30 30 29 28 27 27 27 26 26 26 25 28 27 25 25 26 26 25 28 28 26 25 27 28 27 27 29 29 30 28 31 25 25 23 25 25 27 27 28 24 19 19 21
24 24 24 23 23 22 22 23 21 21 24 24 21 19 19 18 20 20 21 20 19 21 23 23 22 21 26 29 31 26 25 26 23 25 27 28 28 21 16 17 18 19 20
20 19 19 19 19 20 19 18 18 19 19 16 13 11 10 8 7 8 10 11 13 16 18 18 18 19 21 23 23 25 25 27 29 30 30 23 15 15 16 17 19 20 21
18 17 17 17 16 15 14 14 15 13 11 7 2 1 7 8 10 12 15 17 19 21 23 24 25 26 25 25 26 30 33 33 32 29 19 15 15 17 18 19 20 22 24
17 17 16 14 13 13 12 11 9 7 4 2 4 6 8 10 13 14 16 18 20 22 24 25 26 27 29 30 31 32 30 28 25 15 16 19 16 19 19 21 21 23 25
17 15 13 12 11 10 8 7 7 5 4 5 6 9 10 12 14 16 18 20 21 22 23 25 26 26 27 28 28 26 23 17 16 17 16 17 20 19 20 21 21 23 25
15 14 13 11 9 9 10 9 7 5 6 8 9 11 13 14 16 18 19 21 22 23 24 24 24 24 24 23 19 16 15 17 19 20 20 19 20 18 20 21 21 24 28
14 13 12 11 11 11 10 9 7 8 9 10 12 14 15 16 17 18 20 21 23 23 24 24 23 22 20 16 15 16 19 21 22 23 24 22 21 21 17 20 21 24 29
Wind_Direction
257 262 266 269 272 277 279 282 285 287 289 290 291 293 296 300 302 305 304 303 303 304 306 312 318 318 312 309 305 300 296 293 292 291 290 289 289 290 293 295 294 293 294
258 262 266 268 273 275 278 281 285 287 287 289 290 289 291 294 295 296 297 298 297 296 299 302 306 309 306 303 301 296 290 287 286 284 282 281 283 285 286 287 289 288 290
255 258 264 269 270 273 277 281 285 286 287 287 286 287 288 290 293 292 293 293 294 293 290 291 294 296 297 296 294 291 285 281 280 279 276 276 278 279 280 279 278 281 284
252 258 263 265 272 276 280 282 285 286 285 285 285 286 286 287 288 290 293 295 295 292 289 285 283 286 289 290 289 288 284 279 276 274 272 272 274 273 272 271 271 274 279
257 258 262 266 268 272 279 286 289 289 290 289 288 287 288 289 289 288 290 291 292 291 288 287 285 283 283 283 285 284 280 277 273 271 269 268 270 271 268 267 267 269 270
262 263 267 268 269 275 282 285 285 288 290 291 289 288 292 294 293 293 294 293 292 294 290 284 282 281 278 278 277 279 277 273 270 268 266 267 267 266 264 263 263 265 266
263 266 267 270 272 276 280 282 284 287 290 292 291 294 292 290 292 296 294 292 292 291 291 290 285 281 278 277 275 271 266 268 269 262 262 261 261 262 261 260 260 260 261
267 267 267 268 272 274 275 278 283 285 288 290 292 293 293 290 292 290 292 292 290 288 287 286 287 285 281 274 268 267 262 261 259 260 258 255 253 255 256 255 255 256 258
265 266 267 269 271 274 277 278 282 284 284 284 287 289 291 293 295 289 286 286 285 286 284 284 285 284 280 281 283 290 290 274 261 255 255 264 257 257 250 248 249 250 252
266 268 271 273 275 276 276 278 277 278 281 284 283 281 280 284 286 290 287 285 284 281 280 281 281 281 283 284 288 286 290 302 300 298 289 293 279 272 270 262 256 250 245
268 269 269 268 269 271 275 278 278 279 280 282 283 280 282 282 284 287 292 291 293 291 290 282 279 282 288 284 286 290 298 286 293 292 302 294 282 286 278 287 279 271 271
264 265 267 269 272 275 278 277 277 279 281 281 281 279 280 282 287 281 288 290 290 291 289 284 289 284 280 289 285 279 282 282 291 281 284 283 283 292 292 285 281 277 268
260 262 265 267 269 271 270 269 273 275 275 277 276 279 280 282 282 285 285 287 289 289 291 290 292 293 287 284 289 293 289 292 281 285 281 282 286 272 285 296 290 283 270
263 262 263 264 265 261 261 265 269 271 275 275 277 280 282 283 285 285 286 287 290 290 291 296 294 290 286 290 291 292 309 299 294 299 300 283 266 268 274 267 262 265 268
262 261 261 261 262 262 262 266 270 273 277 280 281 282 284 287 289 288 288 288 290 293 295 297 294 292 287 291 291 303 304 288 277 299 279 280 277 277 278 277 275 275 274
263 263 263 265 267 269 272 274 275 276 278 280 281 284 286 287 289 290 291 293 293 293 293 295 295 289 286 289 294 296 301 293 285 284 283 286 283 278 278 278 279 279 276
264 265 266 266 268 271 272 273 274 277 278 279 283 282 283 288 293 293 292 294 298 296 293 290 287 285 289 291 295 291 288 302 281 287 292 286 277 276 277 278 279 277 277
266 267 268 268 268 268 269 272 275 277 278 281 278 279 287 292 294 293 292 295 297 294 291 287 287 284 285 289 298 293 288 301 280 287 282 278 278 276 276 275 277 280 283
266 266 265 264 264 265 268 270 272 274 278 276 280 289 293 297 296 294 296 296 293 293 293 291 287 287 289 289 292 297 293 281 291 289 285 282 280 281 282 282 279 282 286
263 263 263 264 264 265 268 271 271 272 275 281 288 293 300 300 297 302 299 297 294 300 301 297 295 292 292 290 294 287 285 286 284 284 285 283 283 276 270 273 278 283 287
261 260 259 259 261 265 266 268 269 271 278 281 292 301 309 321 337 328 327 319 308 305 307 312 314 305 296 289 287 284 283 286 291 293 291 285 269 275 281 284 287 289 292
256 255 254 258 259 259 266 267 272 272 268 273 282 296 305 319 322 320 317 313 310 309 308 305 300 294 291 288 283 279 282 287 290 288 276 271 279 280 281 287 296 296 294
248 249 250 251 252 255 259 266 259 233 200 238 284 296 308 315 313 312 314 315 315 312 306 302 300 297 293 288 284 283 284 283 278 262 265 274 274 282 290 293 293 292 295
245 243 240 247 241 242 238 217 205 210 244 275 291 301 306 310 312 316 318 318 316 314 313 311 307 302 296 291 287 285 281 267 260 263 263 270 281 284 288 292 294 296 299
232 231 235 226 216 207 200 208 220 240 268 283 293 298 304 311 315 317 320 321 321 320 317 313 310 307 302 297 288 273 264 262 264 268 269 270 273 277 283 289 294 297 298
223 221 204 193 195 202 211 226 241 259 271 286 293 300 309 312 315 319 319 321 322 321 320 319 316 313 308 297 283 275 273 272 272 273 276 276 276 279 276 281 288 293 297
Height
3191 3192 3193 3193 3193 3193 3193 3193 3193 3193 3193 3192 3192 3191 3191 3190 3189 3188 3187 3186 3185 3184 3182 3181 3180 3178 3177 3176 3174 3173 3172 3171 3170 3169 3168 3167 3166 3165 3165 3164 3163 3163 3162
3188 3189 3190 3190 3190 3190 3190 3190 3190 3190 3189 3189 3189 3188 3187 3187 3186 3185 3184 3183 3182 3181 3180 3179 3178 3176 3174 3173 3171 3170 3169 3168 3168 3167 3166 3165 3164 3163 3162 3161 3161 3161 3160
3185 3186 3187 3187 3187 3187 3187 3187 3187 3186 3186 3185 3185 3184 3183 3183 3182 3181 3180 3179 3177 3176 3175 3175 3174 3173 3171 3170 3169 3167 3166 3165 3164 3164 3163 3162 3161 3159 3158 3158 3157 3157 3156
3182 3183 3184 3184 3184 3184 3184 3184 3183 3182 3182 3181 3180 3179 3179 3178 3177 3177 3175 3174 3173 3172 3171 3170 3168 3168 3167 3166 3165 3164 3163 3162 3160 3159 3158 3158 3157 3155 3154 3153 3152 3152 3152
3179 3179 3180 3180 3180 3180 3180 3180 3179 3178 3177 3176 3175 3174 3173 3173 3172 3171 3171 3170 3168 3167 3166 3165 3164 3163 3163 3161 3160 3159 3158 3157 3156 3154 3153 3152 3151 3151 3150 3148 3147 3147 3146
3175 3175 3176 3176 3176 3176 3176 3175 3174 3173 3173 3171 3169 3168 3167 3166 3166 3165 3165 3164 3163 3162 3160 3159 3158 3157 3156 3156 3154 3153 3152 3150 3149 3148 3147 3146 3145 3144 3143 3142 3141 3141 3140
3170 3170 3171 3171 3171 3171 3171 3170 3169 3168 3167 3166 3162 3162 3161 3160 3160 3161 3159 3158 3158 3157 3156 3155 3153 3152 3150 3150 3148 3145 3144 3143 3141 3139 3138 3137 3137 3136 3135 3134 3134 3133 3133
3164 3164 3165 3165 3165 3165 3164 3164 3162 3161 3161 3160 3157 3155 3152 3154 3155 3155 3153 3152 3152 3151 3150 3148 3147 3146 3144 3142 3139 3135 3131 3130 3128 3128 3126 3125 3125 3125 3125 3125 3125 3125 3126
3159 3158 3158 3159 3158 3157 3157 3157 3156 3155 3154 3154 3153 3151 3146 3143 3144 3147 3146 3145 3144 3143 3142 3140 3139 3136 3134 3133 3128 3123 3121 3117 3115 3115 3116 3115 3113 3112 3111 3112 3114 3115 3116
3151 3151 3151 3151 3151 3150 3150 3150 3150 3149 3147 3146 3146 3145 3142 3139 3136 3133 3135 3135 3135 3134 3133 3131 3129 3128 3127 3125 3122 3117 3115 3112 3107 3107 3102 3106 3105 3104 3102 3101 3102 3102 3103
3143 3144 3143 3143 3143 3143 3142 3142 3141 3140 3139 3137 3137 3136 3134 3131 3130 3128 3123 3124 3125 3123 3123 3122 3120 3119 3119 3117 3111 3109 3105 3105 3101 3100 3096 3095 3095 3093 3094 3094 3094 3095 3097
3135 3135 3134 3134 3134 3134 3134 3133 3132 3131 3131 3130 3129 3128 3128 3125 3124 3122 3118 3115 3114 3114 3113 3112 3110 3110 3108 3106 3103 3097 3096 3094 3093 3090 3087 3086 3085 3085 3086 3085 3084 3085 3086
3127 3127 3126 3126 3126 3126 3126 3124 3123 3123 3123 3122 3121 3120 3119 3118 3115 3114 3112 3108 3106 3103 3103 3103 3102 3101 3099 3096 3094 3090 3089 3084 3083 3081 3078 3077 3075 3078 3078 3075 3077 3077 3079
3118 3119 3118 3118 3118 3118 3118 3117 3115 3115 3115 3114 3113 3111 3110 3109 3108 3105 3103 3101 3096 3094 3093 3092 3092 3090 3088 3086 3084 3083 3079 3076 3074 3072 3071 3071 3069 3070 3069 3069 3069 3071 3071
3110 3110 3110 3110 3110 3110 3110 3110 3109 3108 3106 3106 3105 3104 3102 3100 3099 3097 3095 3093 3090 3085 3083 3082 3081 3080 3079 3077 3075 3074 3071 3069 3069 3068 3066 3066 3064 3064 3063 3062 3062 3063 3062
3102 3103 3104 3104 3103 3103 3103 3102 3101 3100 3099 3098 3097 3095 3094 3092 3090 3089 3086 3084 3082 3079 3075 3073 3072 3071 3070 3068 3067 3068 3065 3064 3061 3059 3061 3060 3060 3058 3057 3056 3055 3055 3055
3095 3095 3096 3096 3096 3096 3096 3095 3094 3093 3092 3091 3090 3088 3087 3085 3082 3080 3079 3077 3074 3071 3068 3065 3064 3063 3062 3060 3059 3059 3058 3057 3057 3055 3054 3053 3052 3052 3051 3050 3049 3048 3048
3087 3088 3088 3088 3088 3088 3088 3087 3087 3086 3086 3084 3084 3082 3079 3077 3075 3074 3072 3069 3067 3065 3063 3060 3058 3057 3056 3054 3053 3052 3052 3050 3049 3049 3047 3047 3047 3046 3044 3042 3042 3041 3040
3079 3080 3080 3081 3081 3081 3081 3081 3080 3081 3080 3079 3077 3074 3072 3070 3068 3067 3065 3063 3061 3060 3058 3055 3052 3051 3049 3048 3046 3044 3043 3042 3042 3042 3041 3040 3040 3037 3036 3034 3034 3033 3033
3071 3072 3073 3073 3073 3074 3074 3075 3074 3074 3074 3072 3070 3067 3066 3064 3063 3061 3059 3058 3057 3055 3052 3049 3046 3045 3043 3042 3040 3039 3039 3038 3037 3036 3034 3033 3032 3030 3030 3030 3029 3029 3027
3065 3066 3066 3067 3068 3068 3068 3068 3068 3068 3067 3066 3064 3063 3062 3061 3059 3059 3057 3055 3053 3051 3048 3045 3042 3040 3038 3036 3035 3034 3033 3031 3030 3028 3026 3025 3024 3025 3024 3023 3022 3021 3020
3060 3061 3062 3063 3063 3064 3064 3064 3064 3064 3063 3061 3060 3060 3060 3059 3058 3056 3054 3051 3049 3046 3043 3040 3038 3037 3035 3032 3030 3029 3026 3024 3021 3021 3019 3019 3019 3018 3018 3016 3015 3013 3012
3056 3057 3058 3058 3059 3060 3060 3060 3060 3061 3060 3059 3059 3059 3058 3056 3055 3053 3050 3047 3044 3041 3038 3035 3032 3030 3027 3025 3023 3020 3018 3015 3014 3014 3014 3013 3014 3012 3010 3009 3008 3007 3005
3052 3053 3054 3055 3056 3056 3057 3058 3059 3058 3058 3058 3057 3056 3055 3053 3051 3049 3046 3043 3040 3037 3033 3029 3026 3023 3020 3017 3015 3012 3011 3010 3010 3010 3011 3010 3008 3007 3005 3004 3003 3000 2997
3048 3049 3051 3052 3052 3054 3055 3056 3057 3056 3057 3056 3055 3054 3052 3049 3047 3044 3041 3038 3035 3031 3028 3024 3021 3018 3015 3012 3009 3007 3006 3006 3006 3005 3005 3005 3003 3002 3000 2998 2996 2993 2990
3045 3046 3047 3049 3051 3053 3054 3055 3054 3054 3054 3052 3052 3050 3047 3045 3042 3039 3036 3033 3030 3027 3023 3020 3016 3013 3010 3008 3006 3005 3004 3003 3002 3001 3000 3000 2998 2996 2996 2993 2990 2987 2984